Tracking 20621 objects as of 29-Mar-2020
HD Live streaming from Space Station
objects crossing your sky now

COSMOS 374 DEB

Track COSMOS 374 DEB now!
10-day predictions


NORAD ID: 4668
Int'l Code: 1970-089L
Perigee: 542.2 km
Apogee: 2,103.3 km
Inclination: 63.0 °
Period: 111.9 minutes
Semi major axis: 7693 km
RCS: 0.097 m2 (small)
Launch date: October 23, 1970
Source: Commonwealth of Independent States (former USSR) (CIS)
Launch site: TYURATAM MISSILE AND SPACE COMPLEX (TTMTR)

Note: This is SATELLITE DEBRIS
aabbcc
Your satellite tracking list
Your tracking list is empty




NASA's NSSDC Master Catalog

Two Line Element Set (TLE):
1  4668U 70089L   20088.77721319 -.00000065  00000-0  15651-4 0  9997
2  4668  62.9540 293.6969 1014516 131.8046 237.4243 12.86465071317799
Source of the keplerian elements: AFSPC